[[{"header":{"parameterUnit":"m.s-1","parameterCategory":1,"la1":30.2991,"la2":30.254,"lo1":-89.0895,"lo2":-89.0444,"dy":0.0017,"dx":0.0017,"nx":28,"ny":28,"refTime":"2025-07-24T03:00:00:Z","depth":0,"parameterNumber":2,"parameterNumberName":"U-component_of_WINDS"},"data":[0,0,0,0,0,0,0,0,0,0,0,0,0,0,0,0,0,0,0,0,0,0,0,0,0,0,0,0,0,0,0,0,0,0,0,0,0,0,0,0,0,0,0,0,0,0,0,0,0,0,0,0,0,0,0,0,0,0,-1.7848,-1.7848,0,-1.7913,-1.7913,-1.7914,-1.7902,-1.7901,-1.7899,-1.7898,-1.7964,-1.7967,-1.797,0,0,0,0,0,0,0,0,0,0,0,0,0,-1.7713,-1.7715,-1.7847,-1.7848,-1.7849,-1.7913,-1.7913,-1.7914,-1.7902,-1.79,-1.7899,-1.7898,-1.7963,-1.7967,-1.797,0,0,0,0,0,0,0,0,0,0,0,0,0,-1.7774,-1.7716,-1.7847,-1.7851,-1.7852,-1.7912,-1.7913,-1.7915,-1.7902,-1.79,-1.7899,-1.7897,-1.7962,-1.7966,-1.7971,-1.8032,0,0,-1.7984,-1.7986,0,0,0,0,0,0,0,0,-1.7771,-1.7779,-1.7849,-1.785,-1.7852,-1.7897,-1.789,-1.7954,-1.7903,-1.7883,-1.7898,-1.7896,-1.7943,-1.7949,-1.7965,-1.8035,-1.8038,-1.7984,-1.7987,-1.7989,-1.799,0,0,0,0,0,0,0,-1.7766,-1.7776,-1.7873,-1.785,-1.7852,-1.7849,-1.7856,-1.7902,-1.7922,-1.7885,-1.7884,-1.7892,-1.7944,-1.7961,-1.7967,-1.8039,-1.7984,-1.7988,-1.799,-1.7992,-1.8165,-1.8167,0,0,0,0,0,0,-1.7761,-1.7773,-1.7871,-1.7875,-1.7806,-1.7853,-1.786,-1.7884,-1.7922,-1.7926,-1.7893,-1.7891,-1.7955,-1.7962,-1.7969,-1.8045,-1.7989,-1.7993,-1.7995,-1.8163,-1.8165,-1.8167,0,0,0,0,0,0,-1.7758,-1.777,-1.7869,-1.7824,-1.7836,-1.7857,-1.7884,-1.7887,-1.7904,-1.7928,-1.7932,-1.7907,-1.7954,-1.7963,-1.8017,-1.8047,-1.7994,-1.7998,-1.816,-1.8163,-1.8166,-1.8195,0,0,0,0,0,0,-1.7754,-1.7769,-1.7792,-1.7824,-1.7839,-1.7915,-1.7886,-1.7889,-1.7911,-1.7909,-1.7942,-1.7946,-1.7953,-1.8011,-1.8021,-1.8052,-1.8002,-1.8158,-1.8162,-1.8165,-1.8192,-1.8199,-1.8205,0,0,0,0,0,-1.775,-1.7797,-1.7794,-1.7806,-1.7868,-1.7917,-1.7925,-1.7932,-1.7914,-1.7938,-1.7954,-1.7945,-1.8042,-1.8016,-1.8028,-1.806,-1.8156,-1.8161,-1.8165,-1.8189,-1.8198,-1.8205,0,0,0,0,0,0,-1.7768,-1.7802,-1.7798,-1.7857,-1.7885,-1.7915,-1.7945,-1.7941,-1.7974,-1.797,-1.7977,-1.7985,-1.804,-1.8055,-1.8027,-1.8122,-1.8096,-1.8103,-1.811,-1.8119,-1.8125,-1.8121,-1.8005,0,0,0,0,0,-1.7779,-1.7816,-1.7843,-1.7893,-1.7907,-1.7924,-1.7945,-1.7949,-1.7977,-1.7988,-1.8008,-1.8036,-1.8073,-1.8096,-1.8131,-1.8194,-1.8202,-1.8222,-1.8229,-1.8234,-1.824,-1.8276,-1.8286,-1.8182,-1.8182,-1.8182,0,0,-1.7802,-1.7825,-1.7847,-1.7898,-1.7919,-1.7957,-1.7934,-1.7975,-1.8004,-1.7994,-1.8047,-1.8063,-1.8094,-1.8153,-1.818,-1.8168,-1.8271,-1.824,-1.8244,-1.8247,-1.8282,-1.8291,-1.83,-1.8185,-1.8185,-1.8184,0,0,-1.7863,-1.7884,-1.7929,-1.7951,-1.7984,-1.7995,-1.8006,-1.8038,-1.8048,-1.8101,-1.8095,-1.813,-1.8192,-1.8216,-1.8236,-1.8308,-1.8302,-1.8319,-1.8354,-1.8389,-1.8397,-1.8404,-1.8431,-1.844,-1.8325,-1.8325,-1.8325,0,-1.7887,-1.7945,-1.7952,-1.7995,-1.8017,-1.8012,-1.8057,-1.8078,-1.8121,-1.8137,-1.8123,-1.8202,-1.8223,-1.8288,-1.8306,-1.8322,-1.8335,-1.8315,-1.8395,-1.8402,-1.8409,-1.8435,-1.8445,-1.8327,-1.8327,-1.8327,-1.8326,0,-1.7974,-1.8014,-1.8046,-1.8089,-1.8115,-1.8158,-1.8173,-1.8198,-1.82,-1.8213,-1.8267,-1.8292,-1.8333,-1.8349,-1.835,-1.8415,-1.8406,-1.8393,-1.8367,-1.8421,-1.8446,-1.8455,-1.833,-1.8329,-1.8329,-1.8328,0,0,-1.8047,-1.8094,-1.8106,-1.8126,-1.8163,-1.8194,-1.8238,-1.8279,-1.8301,-1.8331,-1.8369,-1.8423,-1.8412,-1.8435,-1.8439,-1.8469,-1.8527,-1.8453,-1.8454,-1.8467,-1.8601,-1.8611,-1.8622,-1.8523,-1.8525,-1.8526,-1.8599,0,-1.8113,-1.8191,-1.82,-1.8269,-1.8307,-1.8303,-1.8342,-1.8369,-1.8383,-1.8417,-1.8432,-1.847,-1.8452,-1.8466,-1.8496,-1.8513,-1.8554,-1.8508,-1.8558,-1.856,-1.8551,-1.8634,-1.8645,-1.8712,-1.8608,-1.861,-1.8611,0,-1.82,-1.8233,-1.8307,-1.834,-1.8357,-1.8391,-1.843,-1.8462,-1.8494,-1.8501,-1.8528,-1.8528,-1.8574,-1.8547,-1.8611,-1.858,-1.8601,-1.8613,-1.8615,-1.8621,-1.8589,-1.8643,-1.8733,-1.8744,-1.8626,-1.8624,-1.8623,0,-1.8247,-1.8311,-1.8364,-1.8381,-1.842,-1.8445,-1.8463,-1.8492,-1.8517,-1.855,-1.8566,-1.8605,-1.8626,-1.8656,-1.8667,-1.8646,-1.8732,-1.8704,-1.874,-1.874,-1.8758,-1.8757,-1.8854,-1.8771,-1.8771,-1.8771,-1.877,0,-1.832,-1.8365,-1.8386,-1.8418,-1.847,-1.8479,-1.853,-1.8547,-1.8573,-1.8609,-1.8608,-1.8642,-1.8654,-1.8691,-1.87,-1.8752,-1.8762,-1.877,-1.8772,-1.877,-1.877,-1.8785,-1.8781,-1.8773,-1.8773,-1.8772,-1.8772,0,-1.8381,-1.8397,-1.8454,-1.8488,-1.8498,-1.8534,-1.8563,-1.8595,-1.8608,-1.8654,-1.8666,-1.8687,-1.873,-1.8744,-1.8796,-1.8802,-1.8864,-1.8861,-1.8853,-1.8854,-1.8889,-1.8886,-1.9,-1.9016,-1.8921,-1.8922,-1.8923,0,-1.8427,-1.8462,-1.85,-1.8524,-1.8543,-1.8582,-1.8608,-1.8619,-1.8645,-1.8684,-1.8712,-1.8754,-1.8789,-1.8858,-1.8878,-1.8918,-1.8917,-1.8954,-1.8923,-1.8921,-1.8919,-1.8917,-1.8921,-1.896,-1.8961,-1.8962,-1.8963,0,-1.8506,-1.8512,-1.8549,-1.8589,-1.8619,-1.8651,-1.8682,-1.8702,-1.8718,-1.8748,-1.8792,-1.8819,-1.8873,-1.8915,-1.8956,-1.8975,-1.8972,-1.8972,-1.8983,-1.8982,-1.8977,-1.8981,-1.887,-1.897,-1.8969,-1.8968,-1.8968,-1.8968,-1.8561,-1.8593,-1.8625,-1.8667,-1.8691,-1.8721,-1.8753,-1.8771,-1.8808,-1.8853,-1.8857,-1.8906,-1.8937,-1.8992,-1.9013,-1.9051,-1.9041,-1.9056,-1.906,-1.9063,-1.9067,-1.897,-1.9058,-1.9058,-1.9058,-1.9058,-1.9058,0,-1.8641,-1.8662,-1.87,-1.8744,-1.8777,-1.8772,-1.8806,-1.8834,-1.8877,-1.8907,-1.8941,-1.8993,-1.9035,-1.9059,-1.9102,-1.9127,-1.9127,-1.9138,-1.9137,-1.9141,-1.9073,-1.906,-1.9138,-1.9138,-1.9138,-1.9138,-1.9138,-1.9138,-1.8687,-1.8741,-1.8751,-1.8818,-1.8839,-1.8886,-1.8907,-1.8934,-1.8958,-1.9016,-1.9052,-1.9067,-1.9096,-1.914,-1.9179,-1.9185,-1.9201,-1.9213,-1.9218,-1.9154,-1.9146,-1.9138,-1.9126,-1.9216,-1.9217,-1.9284,-1.9284,-1.9285]},{"header":{"parameterUnit":"m.s-1","parameterCategory":1,"la1":30.2991,"la2":30.254,"lo1":-89.0895,"lo2":-89.0444,"dy":0.0017,"dx":0.0017,"nx":28,"ny":28,"refTime":"2025-07-24T03:00:00:Z","depth":0,"parameterNumber":3,"parameterNumberName":"V-component_of_WINDS"},"data":[0,0,0,0,0,0,0,0,0,0,0,0,0,0,0,0,0,0,0,0,0,0,0,0,0,0,0,0,0,0,0,0,0,0,0,0,0,0,0,0,0,0,0,0,0,0,0,0,0,0,0,0,0,0,0,0,0,0,-0.5279,-0.5279,0,-0.5243,-0.5243,-0.5243,-0.5172,-0.5171,-0.5169,-0.5168,-0.5135,-0.5136,-0.5136,0,0,0,0,0,0,0,0,0,0,0,0,0,-0.5287,-0.5287,-0.5279,-0.5279,-0.5278,-0.5244,-0.5243,-0.5243,-0.5172,-0.5171,-0.5169,-0.5167,-0.5135,-0.5136,-0.5136,0,0,0,0,0,0,0,0,0,0,0,0,0,-0.5271,-0.5287,-0.5279,-0.5239,-0.5235,-0.5244,-0.5243,-0.5242,-0.5173,-0.5171,-0.5168,-0.5166,-0.5135,-0.5136,-0.5136,-0.5183,0,0,-0.5138,-0.5139,0,0,0,0,0,0,0,0,-0.5272,-0.5271,-0.5245,-0.5242,-0.5237,-0.521,-0.5234,-0.5223,-0.5173,-0.5196,-0.5168,-0.5165,-0.5162,-0.516,-0.5159,-0.5181,-0.518,-0.5138,-0.5139,-0.5139,-0.5139,0,0,0,0,0,0,0,-0.5273,-0.5272,-0.5265,-0.5245,-0.524,-0.5223,-0.5218,-0.5231,-0.5192,-0.5194,-0.5189,-0.5186,-0.516,-0.5158,-0.5157,-0.5179,-0.5138,-0.5139,-0.5139,-0.514,-0.5235,-0.5237,0,0,0,0,0,0,-0.528,-0.5273,-0.5266,-0.5264,-0.525,-0.5224,-0.5219,-0.5221,-0.5191,-0.5185,-0.5187,-0.5182,-0.5158,-0.5157,-0.5156,-0.5207,-0.5139,-0.514,-0.514,-0.5233,-0.5235,-0.5238,0,0,0,0,0,0,-0.528,-0.528,-0.5268,-0.5267,-0.5264,-0.5226,-0.5229,-0.5221,-0.522,-0.5186,-0.5179,-0.5193,-0.5156,-0.5155,-0.5176,-0.5205,-0.514,-0.5141,-0.523,-0.5234,-0.5237,-0.5311,0,0,0,0,0,0,-0.5281,-0.528,-0.5298,-0.5268,-0.5264,-0.5288,-0.5231,-0.5222,-0.5221,-0.5214,-0.519,-0.5184,-0.5154,-0.5175,-0.5176,-0.5205,-0.5141,-0.5228,-0.5232,-0.5236,-0.5305,-0.5316,-0.5325,0,0,0,0,0,-0.5281,-0.5322,-0.5299,-0.5299,-0.5285,-0.529,-0.5288,-0.5253,-0.5223,-0.524,-0.5218,-0.5184,-0.5201,-0.5178,-0.5179,-0.5208,-0.5226,-0.5231,-0.5235,-0.5301,-0.5314,-0.5325,0,0,0,0,0,0,-0.5358,-0.5317,-0.5292,-0.5324,-0.5311,-0.5278,-0.5299,-0.5268,-0.5264,-0.5258,-0.5215,-0.521,-0.5237,-0.5224,-0.5199,-0.5249,-0.5208,-0.5213,-0.5257,-0.5269,-0.5279,-0.5282,-0.5142,0,0,0,0,0,-0.5379,-0.5385,-0.5349,-0.538,-0.5375,-0.5338,-0.5339,-0.5312,-0.5298,-0.5292,-0.5272,-0.526,-0.5261,-0.5264,-0.5265,-0.5302,-0.5295,-0.5322,-0.5332,-0.534,-0.5346,-0.5363,-0.5374,-0.5253,-0.5253,-0.5253,0,0,-0.5422,-0.54,-0.5407,-0.5395,-0.5382,-0.539,-0.5334,-0.5346,-0.5351,-0.5294,-0.5312,-0.5296,-0.528,-0.5308,-0.532,-0.5299,-0.5377,-0.5346,-0.5353,-0.5354,-0.5369,-0.538,-0.5391,-0.5257,-0.5256,-0.5256,0,0,-0.5504,-0.5488,-0.5512,-0.5499,-0.5478,-0.5453,-0.5458,-0.5429,-0.5416,-0.5433,-0.5389,-0.5395,-0.54,-0.5389,-0.5385,-0.5458,-0.5426,-0.5459,-0.5511,-0.5528,-0.5538,-0.5546,-0.5572,-0.5582,-0.5464,-0.5464,-0.5464,0,-0.5561,-0.5571,-0.5529,-0.5542,-0.5537,-0.5483,-0.5506,-0.5496,-0.5477,-0.5476,-0.5451,-0.5453,-0.5439,-0.5463,-0.5481,-0.5478,-0.5483,-0.5463,-0.5539,-0.5547,-0.5554,-0.5579,-0.5589,-0.5468,-0.5468,-0.5468,-0.5467,0,-0.5641,-0.5648,-0.567,-0.5651,-0.5648,-0.5667,-0.5627,-0.5629,-0.5601,-0.5578,-0.5595,-0.5574,-0.5568,-0.5571,-0.5545,-0.5591,-0.5578,-0.5547,-0.5505,-0.5571,-0.5593,-0.5602,-0.5474,-0.5473,-0.5472,-0.5471,0,0,-0.5777,-0.573,-0.5739,-0.5728,-0.5699,-0.5704,-0.5719,-0.5711,-0.5714,-0.5701,-0.5713,-0.5716,-0.5685,-0.568,-0.5651,-0.5666,-0.5724,-0.5632,-0.5631,-0.5651,-0.5773,-0.5799,-0.581,-0.5702,-0.5703,-0.5705,-0.5775,0,-0.5854,-0.5876,-0.5836,-0.5868,-0.5874,-0.5819,-0.5832,-0.5815,-0.5793,-0.5794,-0.5769,-0.5772,-0.5732,-0.5728,-0.5739,-0.5715,-0.5749,-0.5709,-0.5713,-0.5714,-0.5721,-0.5822,-0.5849,-0.5917,-0.5783,-0.5785,-0.5786,0,-0.5949,-0.5939,-0.5971,-0.5937,-0.5937,-0.595,-0.5937,-0.5939,-0.5918,-0.59,-0.5892,-0.5857,-0.5868,-0.5825,-0.584,-0.5813,-0.5812,-0.5799,-0.5801,-0.5802,-0.5756,-0.5827,-0.5938,-0.5949,-0.5799,-0.5798,-0.5797,0,-0.6045,-0.6039,-0.6057,-0.6049,-0.601,-0.602,-0.6004,-0.598,-0.5977,-0.5966,-0.5963,-0.5955,-0.5951,-0.5944,-0.5907,-0.5879,-0.5926,-0.588,-0.5913,-0.5914,-0.5928,-0.5928,-0.6042,-0.5924,-0.5924,-0.5924,-0.5923,0,-0.6138,-0.616,-0.6099,-0.6111,-0.6132,-0.6085,-0.6108,-0.6087,-0.6066,-0.6072,-0.6023,-0.603,-0.598,-0.5981,-0.5951,-0.5968,-0.5966,-0.5953,-0.5945,-0.5958,-0.596,-0.5959,-0.5954,-0.5926,-0.5926,-0.5925,-0.5925,0,-0.6251,-0.6211,-0.6227,-0.6186,-0.6177,-0.6195,-0.616,-0.6169,-0.6141,-0.6149,-0.6148,-0.6105,-0.6103,-0.6064,-0.6055,-0.6035,-0.6064,-0.6046,-0.6071,-0.6066,-0.6101,-0.6099,-0.622,-0.6233,-0.6105,-0.6106,-0.6107,0,-0.6314,-0.6329,-0.6289,-0.6289,-0.6274,-0.6275,-0.627,-0.6222,-0.6219,-0.6194,-0.6206,-0.6199,-0.6192,-0.6191,-0.6159,-0.6151,-0.6134,-0.6176,-0.6133,-0.6145,-0.6136,-0.6136,-0.6138,-0.6187,-0.6189,-0.619,-0.6191,0,-0.643,-0.6408,-0.6403,-0.639,-0.6385,-0.6373,-0.6357,-0.636,-0.6307,-0.6306,-0.6302,-0.6296,-0.6284,-0.6278,-0.6263,-0.6247,-0.6211,-0.6204,-0.6211,-0.6227,-0.6241,-0.6234,-0.6098,-0.6203,-0.6202,-0.6201,-0.62,-0.62,-0.6521,-0.6531,-0.6504,-0.6499,-0.6481,-0.6467,-0.6472,-0.6443,-0.6438,-0.6424,-0.6395,-0.6396,-0.6371,-0.6347,-0.6333,-0.6332,-0.6311,-0.6321,-0.6324,-0.6328,-0.6335,-0.6238,-0.6329,-0.6329,-0.6328,-0.6328,-0.6328,0,-0.6636,-0.6614,-0.661,-0.6588,-0.6583,-0.6546,-0.6526,-0.6525,-0.6525,-0.6504,-0.6496,-0.6491,-0.6483,-0.6449,-0.6438,-0.6444,-0.6427,-0.6443,-0.6443,-0.644,-0.6355,-0.635,-0.6456,-0.6456,-0.6456,-0.6456,-0.6456,-0.6456,-0.6696,-0.671,-0.6685,-0.6689,-0.6667,-0.6666,-0.6657,-0.6643,-0.6626,-0.6621,-0.6614,-0.6591,-0.6564,-0.6549,-0.6541,-0.653,-0.653,-0.6551,-0.6536,-0.6458,-0.6446,-0.6434,-0.643,-0.6551,-0.6551,-0.6621,-0.6622,-0.6622]}]]